Meath Environmental Platform

Observations for Trim Market St

Time AQI Temp °C Hum % Pres Pa CO μg/m³ H₂S μg/m³ NO μg/m³ NO₂ μg/m³ O₃ μg/m³ SO₂ μg/m³ PM1 μg/m³ PM2.5 μg/m³ PM10 μg/m³
Wednesday 15 July 2026
14:04 1 36.7 30 66,547 0 0 0 0 36.54 1.39 8.55 13.08 18.76
14:03 1 36.8 30 66,541 0 0 0 0 32.59 1.3 7.13 10.91 14.44
13:58 1 37 30 66,590 0 0 0 0 30.95 1.2 6.41 11.97 15.28
13:57 1 37 30 66,619 0 0 0 0.83 28.74 1.3 7.13 8.71 10.11
13:56 1 36.9 30 66,625 0 0 0 2.05 38.46 1.04 6.41 11.42 15.28
13:55 1 37 30 66,637 0 0 0 0 31.3 1.22 7.13 11.98 17.01
13:54 1 37 30 66,651 0 0 0 0.24 33.73 0.79 7.13 10.34 13.56
13:53 1 37 31 66,635 0 0 0 0 21.08 1.2 9.26 13.04 16.99
13:52 1 36.9 31 66,619 0 0 0 2.02 40.89 1.04 7.84 11.94 16.12
13:51 1 36.9 31 66,625 0 0 0 2.64 33.8 0.69 7.13 12.5 16.13
13:50 1 36.9 31 66,606 0 0 0 8.14 25.61 0 6.41 10.87 13.55
13:49 1 36.8 31 66,608 0 0 0 6.56 24.49 0.39 7.13 11.41 15.27
13:48 1 36.8 31 66,612 0 0 0 7.27 23.14 0 8.55 13.04 18.72
13:47 1 36.8 31 66,592 0 0 0 4.26 25.63 0.3 7.13 9.78 13.55
13:46 1 36.8 31 66,590 0 0 0 12.66 31.88 0 7.13 12.49 16.99
13:44 1 36.7 31 66,592 0 0 0 6.56 24.86 0.05 8.55 12.48 16.12
13:42 1 36.6 31 66,558 0 3.11 0 14.99 24.02 0 9.26 14.1 19.55
13:41 1 36.6 30 66,550 0 0.51 0 12.93 30.51 0 7.13 10.88 13.55
13:40 1 36.7 30 66,572 0 0 0 4.43 28.09 0.65 7.13 10.89 15.29
13:35 1 36.9 30 66,598 0 0 0 0.19 19.84 0.62 7.13 10.9 16.16